[[{"header":{"parameterUnit":"m.s-1","parameterCategory":2,"la1":30.2991,"la2":30.254,"lo1":-89.0895,"lo2":-89.0444,"dy":0.0017,"dx":0.0017,"nx":28,"ny":28,"refTime":"2024-03-08T03:00:00:Z","depth":"0","parameterNumber":2,"parameterNumberName":"U-component_of_CURRENTS"},"data":[0,0,0,0,0,0,0,0,0,0,0,0,0,0,0,0,0,0,0,0,0,0,0,0,0,0,0,0,0,0,0,0,0,0,0,0,0,0,0,0,0,0,0,0,0,0,0,0,0,0,0,0,0,0,0,0,0,0,0.194,0.1941,0,0.1996,0.1996,0.1996,0.1991,0.199,0.199,0.199,0.1973,0.1972,0.1972,0,0,0,0,0,0,0,0,0,0,0,0,0,0.1777,0.178,0.194,0.1941,0.1943,0.1996,0.1996,0.1996,0.1991,0.199,0.199,0.199,0.1973,0.1972,0.1972,0,0,0,0,0,0,0,0,0,0,0,0,0,0.1834,0.178,0.194,0.1952,0.1955,0.1996,0.1996,0.1996,0.1991,0.199,0.199,0.199,0.1973,0.1972,0.1972,0.1973,0,0,0.197,0.197,0,0,0,0,0,0,0,0,0.1831,0.1839,0.1949,0.1952,0.1954,0.1993,0.1932,0.1987,0.1991,0.1969,0.199,0.199,0.1978,0.1977,0.1978,0.1972,0.1971,0.197,0.197,0.197,0.197,0,0,0,0,0,0,0,0.1827,0.1837,0.1954,0.1951,0.1954,0.1938,0.1945,0.1942,0.1966,0.1971,0.1972,0.1991,0.1978,0.1978,0.1977,0.1971,0.197,0.197,0.1969,0.1969,0.2013,0.2015,0,0,0,0,0,0,0.184,0.1834,0.1952,0.1956,0.19,0.1942,0.195,0.1974,0.1968,0.197,0.1991,0.1991,0.1979,0.1978,0.1977,0.2004,0.197,0.1969,0.1969,0.2012,0.2014,0.2015,0,0,0,0,0,0,0.1836,0.185,0.195,0.1902,0.1914,0.1946,0.1973,0.1976,0.1986,0.1986,0.1984,0.2,0.1979,0.1977,0.1991,0.2003,0.1969,0.1969,0.201,0.2012,0.2014,0.2043,0,0,0,0,0,0,0.1831,0.1848,0.1863,0.1903,0.1918,0.199,0.1974,0.1977,0.2001,0.2001,0.1993,0.1991,0.1979,0.1992,0.199,0.2001,0.1968,0.2008,0.2011,0.2014,0.204,0.2046,0.205,0,0,0,0,0,0.1825,0.1855,0.1864,0.1878,0.194,0.1992,0.1997,0.2013,0.2002,0.2017,0.2012,0.1992,0.2008,0.1993,0.1991,0.2001,0.2007,0.201,0.2014,0.2037,0.2044,0.205,0,0,0,0,0,0,0.1791,0.1859,0.1869,0.1918,0.1959,0.1994,0.2013,0.2019,0.2026,0.2019,0.2007,0.2005,0.2021,0.2015,0.1998,0.2026,0.2006,0.2009,0.2025,0.2031,0.2036,0.2038,0.1968,0,0,0,0,0,0.1794,0.1835,0.189,0.193,0.1952,0.198,0.2,0.2012,0.203,0.2033,0.2031,0.2029,0.2032,0.2035,0.2036,0.205,0.2059,0.206,0.2065,0.2069,0.2072,0.2098,0.2105,0.2026,0.2026,0.2026,0,0,0.1789,0.1836,0.1856,0.1926,0.1954,0.1991,0.199,0.2029,0.2048,0.2029,0.2046,0.2044,0.2041,0.2057,0.2064,0.2054,0.2101,0.2073,0.2077,0.2077,0.2102,0.2109,0.2116,0.2028,0.2028,0.2028,0,0,0.1809,0.1846,0.1885,0.1926,0.1985,0.2003,0.2018,0.2058,0.2063,0.2086,0.2076,0.2088,0.2092,0.2097,0.2097,0.2135,0.2127,0.2136,0.2162,0.2187,0.2194,0.2199,0.2237,0.2245,0.214,0.214,0.214,0,0.18,0.1864,0.1903,0.1955,0.1989,0.2011,0.205,0.2063,0.2098,0.2105,0.2096,0.2117,0.2111,0.2133,0.2146,0.2145,0.2162,0.2133,0.2193,0.2198,0.2204,0.224,0.2249,0.2142,0.2142,0.2142,0.2141,0,0.1848,0.1902,0.1932,0.2001,0.2035,0.2079,0.2109,0.2126,0.2129,0.2141,0.2163,0.2164,0.2178,0.218,0.217,0.2208,0.2211,0.2193,0.2172,0.2213,0.225,0.2259,0.2144,0.2144,0.2143,0.2143,0,0,0.1827,0.1942,0.1951,0.1992,0.2064,0.2096,0.2127,0.2164,0.2179,0.2197,0.222,0.223,0.2231,0.2234,0.223,0.2249,0.2302,0.2238,0.2239,0.2268,0.2372,0.2429,0.2444,0.2292,0.2294,0.2295,0.2389,0,0.1853,0.1949,0.1995,0.2068,0.2119,0.2149,0.2175,0.2204,0.2219,0.2244,0.2246,0.2266,0.2252,0.226,0.228,0.2289,0.2325,0.2279,0.2335,0.2337,0.2375,0.2456,0.2377,0.2459,0.2397,0.2399,0.24,0,0.1883,0.195,0.2025,0.2112,0.2132,0.2164,0.2208,0.2236,0.2268,0.2281,0.2306,0.231,0.2343,0.232,0.2375,0.2347,0.237,0.2379,0.2382,0.2429,0.2411,0.2406,0.2477,0.2353,0.2414,0.2412,0.2411,0,0.1852,0.1967,0.2022,0.2057,0.2149,0.217,0.2203,0.2242,0.2265,0.2308,0.2333,0.2365,0.2392,0.2413,0.2443,0.2411,0.2506,0.2463,0.2543,0.2547,0.249,0.2487,0.2438,0.2519,0.2518,0.2518,0.2518,0,0.1868,0.1916,0.2013,0.2047,0.2097,0.2159,0.2196,0.2232,0.2282,0.2319,0.2351,0.2399,0.2418,0.2471,0.2476,0.2558,0.2543,0.2575,0.2585,0.2502,0.2499,0.2396,0.2361,0.2522,0.2521,0.252,0.252,0,0.1828,0.1899,0.1966,0.2059,0.2088,0.2114,0.2193,0.2218,0.2277,0.2331,0.2349,0.2438,0.2527,0.2559,0.2615,0.2625,0.2608,0.2705,0.2621,0.262,0.2576,0.2548,0.2509,0.244,0.2807,0.2809,0.2811,0,0.1823,0.1856,0.195,0.198,0.2023,0.208,0.2114,0.2195,0.2233,0.236,0.2387,0.2508,0.2587,0.2715,0.2773,0.2836,0.2696,0.2785,0.2714,0.2593,0.2567,0.2463,0.2397,0.2647,0.2647,0.2648,0.2648,0,0.1802,0.1824,0.1871,0.1934,0.198,0.2029,0.2097,0.2126,0.2227,0.2298,0.2412,0.2492,0.2678,0.2738,0.2856,0.2869,0.2651,0.2796,0.267,0.2462,0.2342,0.2272,0.2572,0.265,0.265,0.265,0.265,0.265,0.1771,0.1785,0.184,0.1884,0.1934,0.1969,0.1977,0.2064,0.2133,0.2218,0.2363,0.2447,0.259,0.2774,0.2789,0.2741,0.2745,0.2629,0.2615,0.2526,0.2426,0.2764,0.2856,0.2857,0.2858,0.2859,0.2859,0,0.174,0.176,0.1795,0.1842,0.185,0.1903,0.1956,0.1952,0.2008,0.213,0.2228,0.2333,0.2421,0.2497,0.2586,0.2533,0.2397,0.2432,0.2206,0.2157,0.2448,0.2405,0.2403,0.2403,0.2403,0.2403,0.2403,0.2403,0.1734,0.1737,0.1747,0.1748,0.1771,0.1754,0.1758,0.1782,0.1844,0.1903,0.1957,0.2056,0.2218,0.2338,0.23,0.2251,0.2046,0.2025,0.1988,0.2122,0.2135,0.2147,0.2092,0.2024,0.2024,0.1577,0.1574,0.1572]},{"header":{"parameterUnit":"m.s-1","parameterCategory":2,"la1":30.2991,"la2":30.254,"lo1":-89.0895,"lo2":-89.0444,"dy":0.0017,"dx":0.0017,"nx":28,"ny":28,"refTime":"2024-03-08T03:00:00:Z","depth":"0","parameterNumber":3,"parameterNumberName":"V-component_of_CURRENTS"},"data":[0,0,0,0,0,0,0,0,0,0,0,0,0,0,0,0,0,0,0,0,0,0,0,0,0,0,0,0,0,0,0,0,0,0,0,0,0,0,0,0,0,0,0,0,0,0,0,0,0,0,0,0,0,0,0,0,0,0,-0.0877,-0.088,0,-0.1066,-0.1068,-0.1069,-0.1143,-0.1143,-0.1143,-0.1142,-0.1201,-0.1203,-0.1204,0,0,0,0,0,0,0,0,0,0,0,0,0,-0.0603,-0.0607,-0.0877,-0.088,-0.0883,-0.1066,-0.1068,-0.107,-0.1143,-0.1143,-0.1142,-0.1142,-0.1201,-0.1203,-0.1205,0,0,0,0,0,0,0,0,0,0,0,0,0,-0.0745,-0.0608,-0.0877,-0.0944,-0.0953,-0.1065,-0.1068,-0.107,-0.1143,-0.1143,-0.1142,-0.1142,-0.12,-0.1202,-0.1205,-0.1224,0,0,-0.1213,-0.1214,0,0,0,0,0,0,0,0,-0.0737,-0.0755,-0.0932,-0.094,-0.0949,-0.1085,-0.0993,-0.1117,-0.1143,-0.1066,-0.1142,-0.1142,-0.1153,-0.116,-0.1191,-0.1226,-0.1229,-0.1213,-0.1214,-0.1215,-0.1216,0,0,0,0,0,0,0,-0.0727,-0.0747,-0.0947,-0.0935,-0.0946,-0.0974,-0.0993,-0.1017,-0.1102,-0.1073,-0.1079,-0.1108,-0.1156,-0.1188,-0.1192,-0.123,-0.1213,-0.1215,-0.1216,-0.1217,-0.1325,-0.1326,0,0,0,0,0,0,-0.0713,-0.0738,-0.0941,-0.0953,-0.0846,-0.0979,-0.1,-0.1038,-0.1105,-0.1118,-0.1108,-0.111,-0.1184,-0.1189,-0.1195,-0.1231,-0.1215,-0.1218,-0.1219,-0.1323,-0.1325,-0.1326,0,0,0,0,0,0,-0.0706,-0.0729,-0.0934,-0.0853,-0.0881,-0.0984,-0.1025,-0.1042,-0.1082,-0.1134,-0.1143,-0.1133,-0.1184,-0.1191,-0.1236,-0.1233,-0.1219,-0.1221,-0.1322,-0.1324,-0.1326,-0.1296,0,0,0,0,0,0,-0.0698,-0.0726,-0.0739,-0.0852,-0.0886,-0.1,-0.1027,-0.1046,-0.1102,-0.1107,-0.1158,-0.1164,-0.1185,-0.1233,-0.1239,-0.1236,-0.1223,-0.132,-0.1323,-0.1325,-0.1296,-0.1297,-0.1298,0,0,0,0,0,-0.0687,-0.0712,-0.0738,-0.0763,-0.0903,-0.1001,-0.102,-0.1089,-0.1103,-0.1123,-0.1167,-0.1162,-0.1253,-0.1236,-0.1243,-0.1241,-0.1319,-0.1322,-0.1325,-0.1295,-0.1297,-0.1298,0,0,0,0,0,0,-0.0606,-0.0726,-0.0756,-0.0818,-0.09,-0.1015,-0.104,-0.109,-0.1145,-0.1139,-0.1184,-0.1193,-0.1229,-0.1249,-0.123,-0.1284,-0.1283,-0.1288,-0.1258,-0.126,-0.1261,-0.1217,-0.1225,0,0,0,0,0,-0.0593,-0.0631,-0.0755,-0.0796,-0.0838,-0.0937,-0.0982,-0.1031,-0.1102,-0.1126,-0.1167,-0.1207,-0.1248,-0.1264,-0.1299,-0.1328,-0.1327,-0.1333,-0.1334,-0.1335,-0.1307,-0.1348,-0.1349,-0.1336,-0.1336,-0.1336,0,0,-0.057,-0.0639,-0.0662,-0.0779,-0.0843,-0.0907,-0.0962,-0.1029,-0.1065,-0.112,-0.1163,-0.121,-0.126,-0.1297,-0.1314,-0.1311,-0.1336,-0.1339,-0.1339,-0.131,-0.1351,-0.1352,-0.1353,-0.1338,-0.1338,-0.1338,0,0,-0.0539,-0.0608,-0.063,-0.0703,-0.0804,-0.0874,-0.0894,-0.1008,-0.1038,-0.1099,-0.1147,-0.1198,-0.1257,-0.1298,-0.1325,-0.1356,-0.1344,-0.1366,-0.1331,-0.1372,-0.1372,-0.1372,-0.1349,-0.1348,-0.1364,-0.1364,-0.1364,0,-0.0504,-0.0563,-0.0649,-0.0698,-0.0755,-0.0858,-0.0902,-0.0956,-0.1063,-0.1074,-0.1101,-0.1207,-0.1255,-0.1303,-0.132,-0.1353,-0.1352,-0.1316,-0.137,-0.137,-0.1371,-0.1348,-0.1346,-0.1363,-0.1363,-0.1363,-0.1363,0,-0.0502,-0.0553,-0.0575,-0.0669,-0.0735,-0.0792,-0.0891,-0.0927,-0.0977,-0.103,-0.1082,-0.1168,-0.1223,-0.126,-0.1299,-0.1332,-0.132,-0.1366,-0.1354,-0.137,-0.1345,-0.1344,-0.1361,-0.1362,-0.1362,-0.1362,0,0,-0.043,-0.0547,-0.0557,-0.0589,-0.0728,-0.0779,-0.0826,-0.0899,-0.0904,-0.0994,-0.1011,-0.1113,-0.115,-0.1184,-0.125,-0.1293,-0.1308,-0.1322,-0.1325,-0.1277,-0.1344,-0.1282,-0.1275,-0.1365,-0.1365,-0.1366,-0.1315,0,-0.0406,-0.0461,-0.054,-0.0598,-0.0646,-0.0744,-0.0775,-0.0839,-0.0892,-0.0926,-0.1008,-0.1052,-0.1125,-0.1151,-0.1209,-0.1291,-0.1307,-0.1313,-0.1354,-0.1354,-0.1281,-0.1274,-0.1179,-0.1122,-0.1314,-0.1314,-0.1313,0,-0.0396,-0.0433,-0.047,-0.0555,-0.0582,-0.0621,-0.0678,-0.072,-0.0783,-0.0815,-0.0876,-0.0944,-0.1021,-0.1087,-0.1196,-0.1194,-0.1248,-0.1308,-0.1308,-0.1254,-0.1291,-0.1146,-0.1113,-0.1229,-0.1312,-0.1312,-0.1312,0,-0.0308,-0.0397,-0.0409,-0.045,-0.0551,-0.0556,-0.0604,-0.0668,-0.0673,-0.0737,-0.0741,-0.0853,-0.0896,-0.1003,-0.1125,-0.116,-0.1223,-0.1295,-0.1275,-0.1269,-0.1194,-0.1181,-0.1256,-0.1343,-0.1343,-0.1343,-0.1343,0,-0.0277,-0.03,-0.0358,-0.0372,-0.0365,-0.0468,-0.0456,-0.0506,-0.0551,-0.0538,-0.0668,-0.0676,-0.0881,-0.0952,-0.1072,-0.1145,-0.1179,-0.1237,-0.1255,-0.118,-0.1167,-0.127,-0.1343,-0.1341,-0.1342,-0.1342,-0.1342,0,-0.0208,-0.025,-0.0261,-0.0316,-0.0326,-0.0315,-0.0362,-0.0348,-0.0403,-0.0391,-0.0403,-0.0531,-0.0629,-0.0796,-0.0959,-0.1049,-0.1176,-0.1161,-0.1022,-0.1024,-0.1124,-0.1197,-0.1241,-0.1276,-0.1127,-0.1125,-0.1124,0,-0.0193,-0.0181,-0.0187,-0.0167,-0.019,-0.0191,-0.0183,-0.0253,-0.0244,-0.0289,-0.0269,-0.0362,-0.0403,-0.0596,-0.0786,-0.0936,-0.1086,-0.0939,-0.1007,-0.1085,-0.1183,-0.125,-0.1284,-0.0886,-0.0882,-0.088,-0.0877,0,-0.0148,-0.0124,-0.0115,-0.0057,-0.0035,-0.0018,-0.0021,0.001,-0.0051,-0.003,-0.0019,-0.0047,-0.0236,-0.0359,-0.0575,-0.07,-0.0978,-0.0886,-0.1027,-0.1029,-0.1047,-0.1103,-0.0932,-0.0853,-0.0856,-0.0857,-0.0859,-0.086,-0.0097,-0.0053,-0.0006,0.005,0.0084,0.0142,0.0181,0.0194,0.0246,0.0294,0.0227,0.0262,0.0033,-0.0261,-0.0455,-0.074,-0.0817,-0.0828,-0.0912,-0.0975,-0.1009,-0.0744,-0.0664,-0.0665,-0.0666,-0.0667,-0.0668,0,-0.0023,0.0027,0.0083,0.0158,0.0228,0.022,0.0281,0.0341,0.0438,0.0514,0.0557,0.0527,0.0272,-0.0063,-0.0465,-0.0709,-0.0842,-0.0868,-0.0969,-0.1008,-0.081,-0.0802,-0.0675,-0.0675,-0.0675,-0.0675,-0.0675,-0.0675,0.0013,0.011,0.015,0.0278,0.0328,0.0428,0.0482,0.0581,0.0658,0.0818,0.0897,0.0896,0.0648,-0.0143,-0.0709,-0.0856,-0.1071,-0.107,-0.1236,-0.1135,-0.114,-0.1144,-0.1157,-0.1107,-0.1108,-0.1374,-0.1377,-0.1379]}],[{"header":{"parameterUnit":"m.s-1","parameterCategory":2,"la1":30.2991,"la2":30.254,"lo1":-89.0895,"lo2":-89.0444,"dy":0.0017,"dx":0.0017,"nx":28,"ny":28,"refTime":"2024-03-08T03:00:00:Z","depth":"2","parameterNumber":2,"parameterNumberName":"U-component_of_CURRENTS"},"data":[0,0,0,0,0,0,0,0,0,0,0,0,0,0,0,0,0,0,0,0,0,0,0,0,0,0,0,0,0,0,0,0,0,0,0,0,0,0,0,0,0,0,0,0,0,0,0,0,0,0,0,0,0,0,0,0,0,0,0.1571,0.1571,0,0.1586,0.1586,0.1586,0.162,0.162,0.1621,0.1621,0.1573,0.1572,0.157,0,0,0,0,0,0,0,0,0,0,0,0,0,0.1481,0.1483,0.1571,0.1571,0.1571,0.1585,0.1586,0.1586,0.162,0.162,0.1621,0.1621,0.1574,0.1572,0.157,0,0,0,0,0,0,0,0,0,0,0,0,0,0.1513,0.1484,0.1571,0.1588,0.1589,0.1585,0.1586,0.1586,0.162,0.162,0.1621,0.1622,0.1575,0.1572,0.157,0.154,0,0,0.1562,0.1561,0,0,0,0,0,0,0,0,0.1511,0.1516,0.1585,0.1587,0.1588,0.1599,0.1536,0.1567,0.1619,0.1611,0.1621,0.1622,0.1574,0.1572,0.1577,0.1538,0.1535,0.1562,0.156,0.1559,0.1558,0,0,0,0,0,0,0,0.1509,0.1515,0.158,0.1585,0.1587,0.1562,0.1569,0.1542,0.1589,0.1612,0.1613,0.1611,0.1575,0.158,0.1576,0.1535,0.1562,0.1559,0.1558,0.1557,0.1584,0.1586,0,0,0,0,0,0,0.1507,0.1514,0.1579,0.158,0.1548,0.1564,0.1571,0.1597,0.1591,0.159,0.161,0.1612,0.1584,0.1579,0.1574,0.1611,0.1559,0.1557,0.1555,0.1582,0.1584,0.1587,0,0,0,0,0,0,0.1505,0.1513,0.1578,0.1543,0.1549,0.1565,0.1594,0.1597,0.1602,0.159,0.1589,0.1612,0.1584,0.1578,0.1594,0.1607,0.1555,0.1553,0.1579,0.1582,0.1586,0.1638,0,0,0,0,0,0,0.1503,0.1514,0.1528,0.1544,0.1551,0.1605,0.1593,0.1597,0.1598,0.1601,0.159,0.1587,0.1584,0.1598,0.1591,0.1602,0.1551,0.1576,0.158,0.1584,0.1633,0.1642,0.165,0,0,0,0,0,0.15,0.1525,0.153,0.1537,0.1574,0.1606,0.1609,0.1622,0.1597,0.1623,0.1624,0.1588,0.162,0.1598,0.1589,0.16,0.1574,0.1579,0.1584,0.1629,0.1641,0.165,0,0,0,0,0,0,0.1495,0.1531,0.1537,0.1572,0.1597,0.1612,0.163,0.1615,0.1632,0.1642,0.1607,0.1607,0.1627,0.1612,0.1587,0.1627,0.1593,0.1597,0.1631,0.1641,0.1649,0.1655,0.1549,0,0,0,0,0,0.1498,0.1534,0.1557,0.1589,0.1605,0.1609,0.1616,0.1635,0.1647,0.1655,0.1641,0.164,0.164,0.164,0.1647,0.1652,0.1655,0.166,0.1669,0.1676,0.168,0.1703,0.1713,0.1603,0.1603,0.1603,0,0,0.1498,0.1527,0.1542,0.159,0.1611,0.1645,0.1619,0.1659,0.1677,0.1644,0.1668,0.1665,0.1651,0.1682,0.1688,0.1668,0.1717,0.1682,0.1688,0.1688,0.1709,0.1719,0.1729,0.1607,0.1606,0.1606,0,0,0.1522,0.1554,0.1589,0.1623,0.1669,0.168,0.1687,0.1714,0.1723,0.1744,0.1731,0.174,0.1731,0.1738,0.173,0.1783,0.1762,0.1788,0.1827,0.185,0.1858,0.1866,0.191,0.1921,0.179,0.179,0.179,0,0.1522,0.1575,0.1601,0.1652,0.1678,0.1692,0.1732,0.1746,0.1772,0.1774,0.177,0.1775,0.1756,0.1774,0.1807,0.1797,0.1822,0.1781,0.1859,0.1866,0.1873,0.1916,0.1927,0.1793,0.1793,0.1793,0.1792,0,0.1564,0.1619,0.1649,0.1717,0.1748,0.18,0.1824,0.185,0.1843,0.1844,0.1867,0.1865,0.1865,0.1863,0.1845,0.1886,0.1895,0.1865,0.1825,0.1886,0.1929,0.1939,0.1798,0.1797,0.1796,0.1795,0,0,0.1544,0.1654,0.1668,0.1715,0.1794,0.1826,0.1867,0.1898,0.1907,0.1934,0.194,0.195,0.1944,0.1939,0.1925,0.1944,0.201,0.1933,0.1932,0.1965,0.2093,0.2109,0.2122,0.1999,0.2001,0.2002,0.2113,0,0.1572,0.1667,0.1712,0.1801,0.1853,0.1895,0.1914,0.1949,0.1965,0.1982,0.1981,0.1992,0.1973,0.198,0.1999,0.2001,0.2038,0.1985,0.2039,0.2042,0.2037,0.2134,0.1915,0.1997,0.2123,0.2125,0.2126,0,0.1596,0.1662,0.174,0.1844,0.1866,0.1906,0.1957,0.1986,0.2014,0.2021,0.2051,0.2055,0.209,0.2058,0.2117,0.2091,0.2106,0.2109,0.2113,0.2112,0.2076,0.1952,0.2011,0.2143,0.2142,0.2141,0.214,0,0.1561,0.1688,0.1743,0.1784,0.1882,0.1912,0.1954,0.1991,0.2012,0.2059,0.2085,0.2121,0.2146,0.2174,0.2203,0.2167,0.2273,0.2213,0.225,0.2252,0.2068,0.2051,0.2266,0.2266,0.2266,0.2266,0.2265,0,0.1573,0.1633,0.1733,0.1771,0.1823,0.1898,0.1939,0.198,0.2029,0.2061,0.2106,0.2152,0.2179,0.2243,0.2248,0.2308,0.2317,0.2287,0.2288,0.2086,0.207,0.2183,0.2172,0.227,0.2269,0.2268,0.2267,0,0.1531,0.16,0.1671,0.1773,0.1811,0.184,0.1941,0.1964,0.2023,0.2078,0.2103,0.2191,0.2285,0.2334,0.239,0.2375,0.2415,0.2432,0.2215,0.219,0.2366,0.2357,0.2478,0.248,0.2481,0.2482,0.2483,0,0.1517,0.1547,0.165,0.1684,0.1736,0.1803,0.1839,0.1932,0.1973,0.2103,0.2129,0.2259,0.2311,0.2431,0.2435,0.2481,0.2505,0.2322,0.2203,0.2403,0.2392,0.238,0.2369,0.1985,0.1982,0.1979,0.1977,0,0.1486,0.1507,0.1558,0.1622,0.1679,0.1735,0.182,0.1846,0.1952,0.201,0.2106,0.2166,0.2303,0.225,0.2345,0.2343,0.2294,0.2275,0.2534,0.1979,0.1951,0.1936,0.1938,0.1954,0.1956,0.1958,0.1959,0.196,0.1445,0.1454,0.151,0.1559,0.1624,0.1658,0.1661,0.1747,0.1793,0.1842,0.1975,0.1984,0.204,0.2054,0.206,0.2095,0.2236,0.2118,0.2119,0.2125,0.2062,0.2039,0.2049,0.2051,0.2054,0.2056,0.2058,0,0.14,0.142,0.1459,0.1506,0.1526,0.1589,0.1637,0.1602,0.1614,0.168,0.1715,0.1592,0.1593,0.1698,0.1694,0.1754,0.168,0.1716,0.1556,0.1582,0.1605,0.1508,0.1351,0.1349,0.1347,0.1345,0,0,0.1386,0.1394,0.1405,0.1407,0.1432,0.1411,0.1405,0.1372,0.1382,0.1327,0.1312,0.1394,0.1549,0.1342,0.1392,0.1356,0.1442,0.1325,0.189,0.1719,0.1738,0.1845,0.1729,0,0,0,0,0]},{"header":{"parameterUnit":"m.s-1","parameterCategory":2,"la1":30.2991,"la2":30.254,"lo1":-89.0895,"lo2":-89.0444,"dy":0.0017,"dx":0.0017,"nx":28,"ny":28,"refTime":"2024-03-08T03:00:00:Z","depth":"2","parameterNumber":3,"parameterNumberName":"V-component_of_CURRENTS"},"data":[0,0,0,0,0,0,0,0,0,0,0,0,0,0,0,0,0,0,0,0,0,0,0,0,0,0,0,0,0,0,0,0,0,0,0,0,0,0,0,0,0,0,0,0,0,0,0,0,0,0,0,0,0,0,0,0,0,0,-0.022,-0.0221,0,-0.033,-0.0332,-0.0334,-0.0495,-0.0497,-0.0498,-0.05,-0.0525,-0.0524,-0.0523,0,0,0,0,0,0,0,0,0,0,0,0,0,-0.0135,-0.0137,-0.022,-0.0221,-0.0221,-0.0329,-0.0332,-0.0334,-0.0495,-0.0497,-0.0499,-0.0501,-0.0525,-0.0524,-0.0523,0,0,0,0,0,0,0,0,0,0,0,0,0,-0.0212,-0.0137,-0.022,-0.0306,-0.0314,-0.0329,-0.0332,-0.0335,-0.0494,-0.0497,-0.0499,-0.0502,-0.0526,-0.0524,-0.0523,-0.046,0,0,-0.0518,-0.0518,0,0,0,0,0,0,0,0,-0.0207,-0.0216,-0.0293,-0.03,-0.0308,-0.0391,-0.031,-0.0369,-0.0493,-0.0438,-0.05,-0.0503,-0.0463,-0.0467,-0.0499,-0.0461,-0.0462,-0.0518,-0.0517,-0.0517,-0.0516,0,0,0,0,0,0,0,-0.0202,-0.0212,-0.0275,-0.0292,-0.0302,-0.0332,-0.0348,-0.0324,-0.0441,-0.0443,-0.0452,-0.0445,-0.0469,-0.05,-0.05,-0.0463,-0.0518,-0.0517,-0.0516,-0.0515,-0.0615,-0.0618,0,0,0,0,0,0,-0.0163,-0.0207,-0.0271,-0.0277,-0.025,-0.0331,-0.0348,-0.0371,-0.0444,-0.0455,-0.0442,-0.0452,-0.0501,-0.0502,-0.0501,-0.0541,-0.0517,-0.0515,-0.0514,-0.0611,-0.0615,-0.0619,0,0,0,0,0,0,-0.0162,-0.0169,-0.0267,-0.0234,-0.0247,-0.0328,-0.0353,-0.0372,-0.04,-0.0442,-0.0455,-0.045,-0.0504,-0.0503,-0.0566,-0.0538,-0.0514,-0.0513,-0.0607,-0.0612,-0.0617,-0.0547,0,0,0,0,0,0,-0.0159,-0.0169,-0.0172,-0.0232,-0.0247,-0.0313,-0.035,-0.0372,-0.0386,-0.04,-0.0451,-0.0458,-0.0506,-0.0569,-0.0565,-0.0536,-0.0512,-0.0602,-0.0609,-0.0616,-0.0545,-0.0549,-0.0553,0,0,0,0,0,-0.0157,-0.0156,-0.0173,-0.018,-0.0251,-0.0313,-0.0327,-0.0399,-0.0383,-0.0426,-0.0491,-0.0456,-0.0608,-0.0571,-0.0565,-0.0534,-0.0599,-0.0607,-0.0615,-0.0543,-0.0548,-0.0553,0,0,0,0,0,0,-0.013,-0.0172,-0.0193,-0.0209,-0.0268,-0.0338,-0.036,-0.0371,-0.0449,-0.0467,-0.0487,-0.0502,-0.0546,-0.0569,-0.0526,-0.0601,-0.06,-0.0607,-0.0547,-0.0552,-0.0556,-0.0523,-0.0511,0,0,0,0,0,-0.0115,-0.013,-0.0185,-0.0202,-0.0224,-0.0275,-0.0296,-0.0355,-0.0417,-0.0453,-0.0487,-0.0539,-0.057,-0.0587,-0.064,-0.0648,-0.0654,-0.0641,-0.0645,-0.0647,-0.0629,-0.0682,-0.0686,-0.0645,-0.0645,-0.0645,0,0,-0.0104,-0.0128,-0.0137,-0.0196,-0.0242,-0.0285,-0.0302,-0.0359,-0.0392,-0.0433,-0.0497,-0.0539,-0.0583,-0.0642,-0.0659,-0.0653,-0.066,-0.0657,-0.0657,-0.0638,-0.0691,-0.0693,-0.0696,-0.0651,-0.065,-0.0649,0,0,-0.0083,-0.012,-0.0123,-0.0178,-0.0242,-0.0292,-0.0291,-0.0372,-0.0416,-0.0478,-0.052,-0.0556,-0.0612,-0.065,-0.066,-0.0704,-0.068,-0.0727,-0.0699,-0.0751,-0.0752,-0.0754,-0.0726,-0.0726,-0.0726,-0.0726,-0.0726,0,-0.0069,-0.0087,-0.0137,-0.0168,-0.0198,-0.0278,-0.0304,-0.0361,-0.0459,-0.0455,-0.0512,-0.0578,-0.0606,-0.0614,-0.067,-0.0694,-0.0721,-0.0655,-0.0746,-0.0749,-0.0751,-0.0724,-0.0724,-0.0724,-0.0724,-0.0724,-0.0725,0,-0.0055,-0.0084,-0.0098,-0.0161,-0.0208,-0.0263,-0.0337,-0.0386,-0.0419,-0.045,-0.0487,-0.0574,-0.0601,-0.0621,-0.0654,-0.0677,-0.0685,-0.0735,-0.0706,-0.0749,-0.072,-0.0721,-0.072,-0.0721,-0.0722,-0.0723,0,0,-0.0002,-0.0068,-0.008,-0.0097,-0.0215,-0.0248,-0.0302,-0.0342,-0.0326,-0.0437,-0.0412,-0.0493,-0.0518,-0.054,-0.0584,-0.0636,-0.0659,-0.0702,-0.0706,-0.0623,-0.0736,-0.0671,-0.0666,-0.0746,-0.0747,-0.0748,-0.069,0,0.0017,0.0003,-0.0055,-0.01,-0.0116,-0.0211,-0.023,-0.0282,-0.0335,-0.0355,-0.0404,-0.0431,-0.0493,-0.0513,-0.0572,-0.0655,-0.067,-0.0666,-0.0753,-0.0753,-0.0649,-0.0669,-0.0628,-0.057,-0.0691,-0.0692,-0.0692,0,0.0037,0.0033,0.0024,-0.0025,-0.0039,-0.0085,-0.0118,-0.0157,-0.0198,-0.0225,-0.0268,-0.0334,-0.0392,-0.047,-0.0581,-0.0593,-0.0648,-0.0709,-0.071,-0.0671,-0.0692,-0.0564,-0.0568,-0.0694,-0.0694,-0.0694,-0.0694,0,0.0122,0.0071,0.0084,0.0052,-0.0007,-0.0016,-0.0056,-0.0098,-0.0099,-0.0155,-0.0161,-0.0252,-0.0284,-0.0423,-0.0549,-0.0587,-0.0671,-0.073,-0.0693,-0.0686,-0.0674,-0.0664,-0.0782,-0.0782,-0.0782,-0.0783,-0.0783,0,0.0154,0.0151,0.0129,0.0124,0.0153,0.0073,0.0085,0.0048,0.0011,0.0039,-0.0089,-0.0091,-0.0292,-0.0373,-0.0513,-0.0589,-0.0632,-0.0665,-0.0678,-0.0647,-0.0637,-0.0782,-0.0783,-0.078,-0.0781,-0.0781,-0.0782,0,0.0216,0.0199,0.022,0.0198,0.0187,0.0208,0.0156,0.0179,0.013,0.0146,0.0127,0.0037,-0.0065,-0.0234,-0.0408,-0.0487,-0.0609,-0.0611,-0.0517,-0.052,-0.0586,-0.0585,-0.0564,-0.0561,-0.0559,-0.0557,-0.0556,0,0.0244,0.0268,0.029,0.0315,0.0291,0.0298,0.0314,0.0256,0.0268,0.0237,0.0265,0.0181,0.0166,-0.0031,-0.0234,-0.0405,-0.0498,-0.0443,-0.0506,-0.0554,-0.0569,-0.0571,-0.0573,-0.0446,-0.0444,-0.0442,-0.044,0,0.0305,0.0322,0.0349,0.0412,0.0432,0.0461,0.0456,0.049,0.0452,0.0473,0.0505,0.0487,0.0324,0.0168,-0.0057,-0.019,-0.0432,-0.0405,-0.051,-0.0506,-0.0439,-0.0455,-0.0462,-0.0424,-0.0425,-0.0426,-0.0427,-0.0428,0.0359,0.0405,0.0452,0.0505,0.0541,0.0602,0.0643,0.0664,0.0724,0.0753,0.073,0.0711,0.052,0.0246,0.0019,-0.0245,-0.0249,-0.0343,-0.0351,-0.0361,-0.0356,-0.029,-0.024,-0.0241,-0.0241,-0.0241,-0.0242,0,0.0429,0.0469,0.0527,0.0604,0.0661,0.0656,0.0729,0.0786,0.0887,0.0907,0.0948,0.079,0.0624,0.0333,-0.0008,-0.0176,-0.0246,-0.0263,-0.032,-0.0331,-0.0343,-0.0343,-0.0221,-0.0221,-0.0222,-0.0223,0,0,0.0471,0.0541,0.0569,0.0685,0.0733,0.0823,0.0877,0.0975,0.1006,0.1061,0.1027,0.101,0.0691,0.0452,0.0189,-0.0028,-0.0148,-0.0074,-0.0061,-0.0105,-0.0115,-0.0345,-0.0351,0,0,0,0,0]}],[{"header":{"parameterUnit":"m.s-1","parameterCategory":2,"la1":30.2991,"la2":30.254,"lo1":-89.0895,"lo2":-89.0444,"dy":0.0017,"dx":0.0017,"nx":28,"ny":28,"refTime":"2024-03-08T03:00:00:Z","depth":"4","parameterNumber":2,"parameterNumberName":"U-component_of_CURRENTS"},"data":[0,0,0,0,0,0,0,0,0,0,0,0,0,0,0,0,0,0,0,0,0,0,0,0,0,0,0,0,0,0,0,0,0,0,0,0,0,0,0,0,0,0,0,0,0,0,0,0,0,0,0,0,0,0,0,0,0,0,0.0206,0.0205,0,0.0202,0.0203,0.0203,0.0215,0.0214,0.0214,0.0213,0.025,0.0252,0.0253,0,0,0,0,0,0,0,0,0,0,0,0,0,0.037,0.0367,0.0206,0.0205,0.0204,0.0202,0.0203,0.0204,0.0215,0.0214,0.0214,0.0213,0.025,0.0252,0.0253,0,0,0,0,0,0,0,0,0,0,0,0,0,0.0335,0.0366,0.0206,0.0202,0.0201,0.0202,0.0203,0.0204,0.0215,0.0214,0.0213,0.0213,0.0249,0.0251,0.0254,0.0285,0,0,0.0261,0.0262,0,0,0,0,0,0,0,0,0.0337,0.033,0.0204,0.0202,0.0201,0.0199,0.0273,0.023,0.0215,0.0221,0.0213,0.0212,0.0231,0.0235,0.025,0.0287,0.0288,0.0261,0.0262,0.0263,0.0264,0,0,0,0,0,0,0,0.0339,0.0331,0.0215,0.0202,0.0201,0.025,0.0244,0.0267,0.0239,0.022,0.0218,0.0202,0.0232,0.0248,0.0251,0.0289,0.0261,0.0263,0.0264,0.0265,0.0389,0.0391,0,0,0,0,0,0,0.0312,0.0332,0.0215,0.0214,0.0257,0.0246,0.024,0.0209,0.0238,0.0238,0.0203,0.0202,0.0244,0.0248,0.0252,0.033,0.0263,0.0265,0.0267,0.0387,0.039,0.0392,0,0,0,0,0,0,0.0315,0.0301,0.0215,0.0266,0.0257,0.0242,0.0209,0.0209,0.0235,0.0222,0.0226,0.0227,0.0244,0.0249,0.0276,0.033,0.0266,0.0268,0.0385,0.0388,0.0391,0.046,0,0,0,0,0,0,0.032,0.0302,0.029,0.0263,0.0253,0.0221,0.0208,0.0209,0.022,0.0221,0.0245,0.0247,0.0243,0.0273,0.0279,0.0332,0.027,0.0383,0.0386,0.039,0.0456,0.0465,0.0474,0,0,0,0,0,0.0325,0.0288,0.0289,0.0275,0.0229,0.0221,0.0223,0.0217,0.0222,0.0239,0.025,0.0246,0.0301,0.0276,0.0282,0.0337,0.0381,0.0385,0.039,0.0452,0.0463,0.0473,0,0,0,0,0,0,0.0362,0.0284,0.0284,0.023,0.0234,0.0219,0.0223,0.023,0.0256,0.0259,0.0263,0.0266,0.0318,0.0314,0.0287,0.0384,0.0345,0.0351,0.039,0.0401,0.041,0.0429,0.0272,0,0,0,0,0,0.0361,0.031,0.0278,0.0246,0.0244,0.0248,0.025,0.0249,0.0253,0.0265,0.0282,0.0305,0.0342,0.0356,0.0381,0.0427,0.0429,0.0469,0.0478,0.0486,0.0506,0.0571,0.0588,0.0406,0.0406,0.0406,0,0,0.0384,0.0319,0.0306,0.0252,0.0256,0.0267,0.0251,0.0251,0.0279,0.0265,0.0318,0.0339,0.0361,0.0415,0.0439,0.0416,0.0529,0.0491,0.0498,0.0514,0.0577,0.0595,0.0611,0.0409,0.0408,0.0408,0,0,0.0388,0.0337,0.0312,0.0298,0.0274,0.0284,0.0289,0.0293,0.0315,0.0362,0.0366,0.041,0.0462,0.0486,0.0507,0.0581,0.0577,0.0599,0.0659,0.0721,0.0737,0.0751,0.0732,0.0744,0.06,0.06,0.06,0,0.0421,0.0362,0.0317,0.0287,0.0283,0.0297,0.0311,0.0339,0.0358,0.0386,0.0386,0.0485,0.0502,0.0573,0.0609,0.0604,0.0616,0.0614,0.0734,0.0748,0.0761,0.0739,0.0751,0.0604,0.0604,0.0603,0.0603,0,0.0424,0.0374,0.0358,0.0327,0.0334,0.0335,0.0357,0.0397,0.0437,0.0464,0.0546,0.0575,0.064,0.0657,0.0666,0.0771,0.0738,0.0739,0.0706,0.0784,0.0754,0.0766,0.061,0.0608,0.0607,0.0606,0,0,0.0481,0.0383,0.0377,0.0359,0.0345,0.0352,0.0411,0.0467,0.0529,0.0569,0.0651,0.0723,0.0752,0.0779,0.0794,0.0848,0.0941,0.085,0.0852,0.0828,0.1037,0.0991,0.0998,0.0979,0.0983,0.0986,0.0962,0,0.0506,0.0449,0.0407,0.041,0.0394,0.0411,0.0478,0.0529,0.0593,0.0678,0.0719,0.0811,0.0794,0.0857,0.0907,0.0951,0.0984,0.0944,0.0968,0.0967,0.0918,0.1016,0.0997,0.097,0.0973,0.0975,0.0976,0,0.0516,0.0465,0.0462,0.0428,0.0437,0.0475,0.0575,0.0634,0.0742,0.0801,0.0878,0.0914,0.1003,0.0993,0.1074,0.1058,0.1068,0.1073,0.1072,0.1023,0.0947,0.0888,0.0996,0.0995,0.0993,0.0992,0.099,0,0.0556,0.0492,0.0492,0.0477,0.048,0.0524,0.058,0.0684,0.0755,0.0899,0.0972,0.1049,0.1135,0.1159,0.1183,0.1154,0.1258,0.1204,0.1141,0.1133,0.1144,0.1129,0.127,0.127,0.127,0.127,0.127,0,0.0552,0.0539,0.0514,0.0507,0.0553,0.0569,0.0671,0.0749,0.0881,0.0964,0.1053,0.1119,0.1204,0.1252,0.1229,0.1232,0.1293,0.1177,0.1157,0.1164,0.1153,0.1148,0.1134,0.1269,0.1269,0.1269,0.1269,0,0.0562,0.0542,0.0533,0.0551,0.0556,0.0613,0.0698,0.0773,0.0925,0.1041,0.1098,0.1224,0.1287,0.1313,0.1367,0.1309,0.1298,0.1279,0.1264,0.1237,0.1093,0.1083,0.1175,0.1174,0.1173,0.1173,0.1172,0,0.055,0.0546,0.0562,0.0565,0.0568,0.0631,0.0671,0.0796,0.0861,0.106,0.1099,0.1238,0.1289,0.1295,0.1344,0.1305,0.1288,0.1265,0.12,0.1129,0.1099,0.1091,0.1082,0.117,0.117,0.117,0.117,0,0.0536,0.0569,0.0572,0.0578,0.06,0.0605,0.0666,0.0709,0.0861,0.0994,0.1077,0.1132,0.1212,0.1234,0.1273,0.1223,0.1275,0.1254,0.1253,0.1192,0.1124,0.1093,0.1086,0.1167,0.1167,0.1167,0.1168,0,0.055,0.0555,0.0576,0.0573,0.0586,0.0566,0.0599,0.0644,0.0726,0.0929,0.0939,0.1066,0.118,0.1192,0.1193,0.1199,0.1142,0.1078,0.1085,0.1089,0.1084,0.0987,0.0998,0,0,0,0,0,0.0552,0.0545,0.0546,0.0537,0.0547,0.0545,0.0578,0.0619,0.0741,0.0769,0.0861,0.0913,0.0986,0.1041,0.1022,0.1142,0.1142,0.1116,0.1069,0.1149,0.1153,0.1161,0,0,0,0,0,0,0.0549,0.0565,0.0541,0.0499,0.0481,0.0478,0.049,0.0564,0.0571,0.0708,0.0732,0.0861,0.0919,0.0991,0.101,0.103,0.0978,0.1197,0.1194,0.1147,0.115,0.1153,0.1163,0,0,0,0,0]},{"header":{"parameterUnit":"m.s-1","parameterCategory":2,"la1":30.2991,"la2":30.254,"lo1":-89.0895,"lo2":-89.0444,"dy":0.0017,"dx":0.0017,"nx":28,"ny":28,"refTime":"2024-03-08T03:00:00:Z","depth":"4","parameterNumber":3,"parameterNumberName":"V-component_of_CURRENTS"},"data":[0,0,0,0,0,0,0,0,0,0,0,0,0,0,0,0,0,0,0,0,0,0,0,0,0,0,0,0,0,0,0,0,0,0,0,0,0,0,0,0,0,0,0,0,0,0,0,0,0,0,0,0,0,0,0,0,0,0,0.0585,0.0585,0,0.0602,0.0602,0.0603,0.0615,0.0614,0.0614,0.0614,0.0634,0.0635,0.0635,0,0,0,0,0,0,0,0,0,0,0,0,0,0.0475,0.0478,0.0585,0.0585,0.0585,0.0602,0.0602,0.0603,0.0615,0.0614,0.0614,0.0614,0.0634,0.0635,0.0636,0,0,0,0,0,0,0,0,0,0,0,0,0,0.0514,0.0479,0.0585,0.059,0.059,0.0602,0.0602,0.0603,0.0615,0.0614,0.0614,0.0614,0.0633,0.0634,0.0636,0.0651,0,0,0.0639,0.064,0,0,0,0,0,0,0,0,0.0512,0.0519,0.059,0.059,0.059,0.0602,0.0571,0.0618,0.0615,0.061,0.0614,0.0613,0.0621,0.0624,0.0633,0.0652,0.0652,0.0639,0.064,0.064,0.0641,0,0,0,0,0,0,0,0.051,0.0518,0.0596,0.0589,0.059,0.056,0.0567,0.058,0.0621,0.061,0.061,0.0606,0.0622,0.0632,0.0634,0.0653,0.0639,0.064,0.0641,0.0641,0.0702,0.0703,0,0,0,0,0,0,0.0506,0.0516,0.0595,0.0596,0.0545,0.0563,0.057,0.0602,0.062,0.0622,0.0606,0.0606,0.063,0.0632,0.0634,0.0675,0.064,0.0642,0.0642,0.0701,0.0702,0.0703,0,0,0,0,0,0,0.0504,0.0514,0.0595,0.055,0.0558,0.0566,0.0601,0.0603,0.0629,0.0617,0.0619,0.0632,0.063,0.0633,0.066,0.0675,0.0642,0.0643,0.07,0.0701,0.0702,0.0743,0,0,0,0,0,0,0.0501,0.0514,0.0541,0.0552,0.0561,0.0615,0.0601,0.0603,0.0624,0.0625,0.0639,0.0639,0.063,0.0658,0.0661,0.0676,0.0644,0.0699,0.07,0.0702,0.074,0.0745,0.0749,0,0,0,0,0,0.0498,0.0521,0.0543,0.0552,0.0597,0.0616,0.0619,0.0623,0.0625,0.0645,0.0652,0.064,0.067,0.0661,0.0663,0.0679,0.0698,0.07,0.0702,0.0738,0.0744,0.0749,0,0,0,0,0,0,0.048,0.0525,0.0549,0.0586,0.061,0.0617,0.0634,0.0638,0.0661,0.0667,0.0658,0.066,0.0689,0.0682,0.0671,0.0701,0.068,0.0683,0.0706,0.0712,0.0717,0.0718,0.0645,0,0,0,0,0,0.0493,0.0535,0.0563,0.0599,0.0618,0.0636,0.0646,0.0651,0.0665,0.0676,0.0681,0.0688,0.0698,0.0704,0.0713,0.0734,0.0703,0.0744,0.0749,0.0753,0.0756,0.0724,0.0726,0.0709,0.0709,0.0709,0,0,0.0485,0.0525,0.0542,0.0599,0.0626,0.0653,0.0644,0.067,0.0688,0.0675,0.071,0.0711,0.0709,0.0731,0.0742,0.0727,0.0739,0.0755,0.0758,0.0759,0.0726,0.0728,0.0729,0.0711,0.0711,0.071,0,0,0.0498,0.0548,0.0588,0.0615,0.066,0.0673,0.0687,0.0711,0.0725,0.0757,0.0746,0.0756,0.0781,0.0769,0.077,0.0807,0.0769,0.0814,0.0835,0.0805,0.0805,0.0806,0.0756,0.0752,0.0811,0.0811,0.0811,0,0.0494,0.0559,0.0596,0.0641,0.0665,0.0688,0.0725,0.074,0.0763,0.077,0.0776,0.0792,0.0795,0.0799,0.0816,0.0816,0.0789,0.0813,0.0809,0.0809,0.0809,0.0758,0.0753,0.0813,0.0813,0.0813,0.0813,0,0.0526,0.0585,0.0612,0.0689,0.0717,0.0751,0.0779,0.0804,0.0826,0.0825,0.0846,0.0844,0.0848,0.085,0.0852,0.0851,0.0828,0.0822,0.0792,0.0812,0.0758,0.0751,0.0816,0.0816,0.0815,0.0814,0,0,0.0511,0.0616,0.0628,0.0683,0.0748,0.0777,0.0815,0.085,0.0859,0.088,0.0889,0.0907,0.0896,0.0896,0.0885,0.0862,0.0839,0.0851,0.0848,0.0797,0.0759,0.0694,0.068,0.0834,0.0834,0.0833,0.0718,0,0.0538,0.0628,0.0668,0.075,0.0807,0.0839,0.0865,0.089,0.0905,0.0912,0.0905,0.0909,0.0915,0.0914,0.09,0.0863,0.0827,0.087,0.0753,0.0749,0.0683,0.0672,0.0832,0.0713,0.0711,0.071,0.0709,0,0.0564,0.0631,0.0713,0.0807,0.0831,0.0874,0.0927,0.0941,0.0943,0.0947,0.0946,0.0933,0.0923,0.0918,0.0854,0.0885,0.0832,0.0789,0.0783,0.0704,0.0671,0.0691,0.0697,0.0698,0.0699,0.07,0.07,0,0.0552,0.0666,0.0739,0.077,0.086,0.0908,0.0947,0.0961,0.0963,0.0962,0.0956,0.0939,0.0923,0.0879,0.0818,0.0837,0.0724,0.0729,0.0606,0.06,0.0676,0.0677,0.0661,0.0661,0.0661,0.0662,0.0662,0,0.0571,0.0636,0.0752,0.0789,0.0872,0.0924,0.0973,0.0991,0.0992,0.0984,0.0974,0.0958,0.0914,0.0853,0.0806,0.0684,0.071,0.06,0.0566,0.0694,0.0699,0.067,0.0672,0.0657,0.0658,0.0659,0.066,0,0.0561,0.0626,0.0715,0.0827,0.0876,0.0928,0.101,0.1019,0.1014,0.1006,0.1005,0.0961,0.088,0.0805,0.0703,0.0642,0.0545,0.0486,0.0609,0.0585,0.0442,0.0448,0.034,0.0336,0.0333,0.0331,0.0329,0,0.057,0.0616,0.0736,0.0789,0.086,0.095,0.0998,0.1033,0.1037,0.1007,0.0998,0.0915,0.0879,0.0676,0.061,0.0464,0.0444,0.0375,0.0433,0.0432,0.0409,0.042,0.043,0.0325,0.0324,0.0323,0.0323,0,0.0584,0.0616,0.0677,0.078,0.0867,0.0942,0.1023,0.102,0.1029,0.1035,0.0965,0.0871,0.0753,0.0643,0.0504,0.0418,0.0422,0.0346,0.0352,0.0406,0.0412,0.0395,0.0408,0.0313,0.0314,0.0315,0.0316,0,0.0584,0.0615,0.0681,0.0771,0.0859,0.0917,0.0963,0.0987,0.0988,0.0962,0.0944,0.0842,0.0798,0.0615,0.0513,0.0395,0.0375,0.0343,0.0349,0.0359,0.0407,0.0421,0.0284,0,0,0,0,0,0.059,0.0613,0.0679,0.0761,0.0834,0.0896,0.0967,0.0993,0.1016,0.0956,0.0944,0.0843,0.0661,0.06,0.0466,0.0464,0.0356,0.03,0.0322,0.026,0.0271,0.0319,0,0,0,0,0,0,0.0594,0.064,0.0662,0.0732,0.0785,0.0869,0.0913,0.0932,0.0901,0.0908,0.082,0.0792,0.0629,0.0734,0.0458,0.0426,0.0415,0.0233,0.0229,0.0253,0.0263,0.0272,0.0326,0,0,0,0,0]}]]